Content
SEND FEEDBACK

Daily
Averages
Monthly
Summary
United States of America

EL PASO, TEXAS


Home > North America > United States > Texas
Elevation: 3918 feet     Latitude: 31 48N     Longitude: 106 24W

WEATHER
 
SELECT A DAY
Number of Records: 172,064;   Date Range: 1/1/95 - 8/12/14
 
SHARE

PRINT THIS DATA

[ ← Previous Day ]
WEATHER ALMANAC - OCTOBER 24, 2013
[ Next Day → ]
[ °C ]   °F
We're sorry. There is no daily almanac available for El Paso, Texas on October 24, 2013.
WEATHER BY HOUR - OCTOBER 24, 2013
[ °C ]   °F
Local TimeTemperatureDewpointHumidityBarometerVisibilityWind DirectionWind SpeedGust SpeedPrecipitationEventsConditions
1:51 AM57.0 °F32.0 °F39 %29.96 in10.0 miNorth (10°)8.1 mphMostly Cloudy
2:51 AM55.0 °F32.0 °F42 %29.97 in10.0 miNorth (360°)5.8 mphMostly Cloudy
3:51 AM54.0 °F32.0 °F43 %29.96 in10.0 miNorth (10°)8.1 mphScattered Clouds
4:51 AM55.0 °F30.9 °F40 %29.97 in10.0 miNorth (10°)8.1 mphPartly Cloudy
5:51 AM55.9 °F30.0 °F37 %29.98 in10.0 miNorth (10°)8.1 mphPartly Cloudy
6:51 AM53.1 °F28.9 °F40 %30.01 in10.0 miNorth (360°)10.4 mphClear
7:51 AM54.0 °F28.9 °F38 %30.03 in10.0 miNorth (360°)8.1 mphPartly Cloudy
8:51 AM57.0 °F30.0 °F36 %30.06 in10.0 miNorth (360°)9.2 mphScattered Clouds
9:51 AM62.1 °F32.0 °F32 %30.05 in10.0 miNNE (20°)8.1 mphMostly Cloudy
10:51 AM69.1 °F34.0 °F27 %30.04 in10.0 miNorth (360°)6.9 mphScattered Clouds
11:51 AM72.0 °F36.0 °F27 %30.02 in10.0 miVariable3.5 mphScattered Clouds
12:51 PM73.9 °F37.0 °F26 %29.98 in10.0 miEast (80°)5.8 mphScattered Clouds
1:51 PM79.0 °F39.0 °F24 %29.93 in10.0 miVariable4.6 mphScattered Clouds
2:51 PM80.1 °F39.0 °F23 %29.91 in10.0 miEast (100°)5.8 mphScattered Clouds
3:51 PM82.0 °F39.0 °F22 %29.89 in10.0 miSSE (150°)8.1 mphScattered Clouds
4:51 PM81.0 °F39.0 °F22 %29.88 in10.0 miESE (120°)8.1 mphScattered Clouds
5:51 PM80.1 °F37.9 °F22 %29.87 in10.0 miSE (130°)11.5 mphScattered Clouds
6:51 PM75.9 °F39.0 °F26 %29.90 in10.0 miESE (110°)6.9 mphScattered Clouds
7:51 PM73.9 °F37.9 °F27 %29.92 in10.0 miESE (110°)8.1 mphScattered Clouds
8:51 PM71.1 °F37.0 °F29 %29.94 in10.0 miEast (90°)8.1 mphPartly Cloudy
9:51 PM71.1 °F34.0 °F26 %29.93 in10.0 miESE (110°)13.8 mph23.0 mphPartly Cloudy
10:51 PM69.1 °F33.1 °F26 %29.94 in10.0 miESE (110°)10.4 mphPartly Cloudy
11:51 PM69.1 °F33.1 °F26 %29.96 in10.0 miVariable4.6 mphScattered Clouds
Hourly data recorded from KELP, located miles away from El Paso, Texas







STORIES FROM OUR PARTNERS